GW3580 Weather Reports


time (UTC)temp
F
wind
direction
speed
knots
gust
knots
rain 1hr
in
rain 24hr
in
rain mn
in
humidity
%
barometer
mb
20260831051721 72 266 1.7 1.7 0.00 0.00 0.00 45 1009.1
20260831051220 73 46 0.0 0.0 0.00 0.00 0.00 45 1009.3
20260831050715 73 21 0.0 0.0 0.00 0.00 0.00 44 1009.1
20260831050214 73 30 0.0 0.0 0.00 0.00 0.00 44 1009.1
20260831045708 74 19 0.0 0.0 0.00 0.00 0.00 44 1009.2
20260831045203 75 28 0.0 0.0 0.00 0.00 0.00 43 1009.1
20260831044658 75 271 0.9 0.9 0.00 0.00 0.00 43 1009.3
20260831044153 75 26 0.0 0.0 0.00 0.00 0.00 41 1009.2
20260831043649 76 352 0.0 0.0 0.00 0.00 0.00 40 1009.2
20260831043144 76 308 0.0 0.9 0.00 0.00 0.00 38 1009.1
20260831042643 77 342 0.0 0.0 0.00 0.00 0.00 37 1009.0
20260831042138 77 26 0.0 0.0 0.00 0.00 0.00 39 1008.9
20260831041633 78 257 0.9 0.9 0.00 0.00 0.00 38 1008.7
20260831041132 79 254 0.0 0.0 0.00 0.00 0.00 37 1008.8
20260831040628 79 262 0.9 0.9 0.00 0.00 0.00 36 1008.9
20260831040121 78 290 2.6 4.3 0.00 0.00 0.00 37 1008.6
20260831035620 78 260 0.9 0.9 0.00 0.00 0.00 38 1008.5
20260831035114 78 346 0.0 0.0 0.00 0.00 0.00 40 1008.7
20260831034614 77 282 0.9 0.9 0.00 0.00 0.00 41 1008.6
20260831034109 77 3 0.0 0.0 0.00 0.00 0.00 41 1008.7
20260831033604 78 4 0.0 0.0 0.00 0.00 0.00 40 1008.6
20260831033059 77 48 0.0 0.0 0.00 0.00 0.00 40 1008.4
20260831032559 77 50 0.0 0.0 0.00 0.00 0.00 42 1008.6
20260831032055 78 50 0.0 0.0 0.00 0.00 0.00 42 1008.5
20260831031554 78 49 0.0 0.0 0.00 0.00 0.00 41 1008.2
20260831031053 79 34 0.0 0.0 0.00 0.00 0.00 39 1008.5
20260831030553 79 34 0.0 0.0 0.00 0.00 0.00 39 1008.3
20260831030052 79 55 0.0 0.0 0.00 0.00 0.00 39 1008.2
20260831025550 80 55 0.0 0.0 0.00 0.00 0.00 39 1008.3
20260831025046 80 55 0.0 0.0 0.00 0.00 0.00 39 1008.2
20260831024542 81 63 0.0 0.0 0.00 0.00 0.00 40 1008.1
20260831024040 82 68 0.0 0.0 0.00 0.00 0.00 40 1008.1
20260831023539 82 69 0.0 0.0 0.00 0.00 0.00 40 1008.2
20260831023033 83 128 0.0 0.0 0.00 0.00 0.00 38 1008.0
20260831022533 83 128 0.0 0.0 0.00 0.00 0.00 38 1008.0
20260831022028 84 128 0.0 0.0 0.00 0.00 0.00 36 1008.0
20260831021527 85 127 0.0 0.0 0.00 0.00 0.00 36 1008.0
20260831021023 86 32 0.0 0.0 0.00 0.00 0.00 33 1008.0
20260831020518 86 32 0.0 0.0 0.00 0.00 0.00 32 1008.0
20260831020013 87 32 0.0 0.0 0.00 0.00 0.00 32 1007.9
20260831015509 87 54 0.0 0.0 0.00 0.00 0.00 31 1008.0
20260831015004 87 191 0.0 0.0 0.00 0.00 0.00 32 1008.0
20260831014458 89 138 0.0 0.9 0.00 0.00 0.00 31 1007.8
20260831013954 90 205 0.9 0.9 0.00 0.00 0.00 28 1007.9
20260831013450 91 39 0.0 0.0 0.00 0.00 0.00 27 1008.0
20260831012949 90 44 0.0 0.0 0.00 0.00 0.00 27 1008.0
20260831012445 91 1 0.9 0.9 0.00 0.00 0.00 25 1008.0
20260831011944 91 26 0.0 0.0 0.00 0.00 0.00 27 1008.1
20260831011439 91 18 0.0 0.0 0.00 0.00 0.00 25 1008.3
20260831010936 92 260 0.0 0.9 0.00 0.00 0.00 24 1008.3
20260831010435 92 70 0.0 0.0 0.00 0.00 0.00 27 1008.0
20260831005931 93 27 0.0 0.0 0.00 0.00 0.00 26 1008.3
20260831005427 93 31 0.0 0.9 0.00 0.00 0.00 25 1008.2
20260831004926 93 38 0.0 0.9 0.00 0.00 0.00 24 1008.2
20260831004423 93 8 0.0 0.0 0.00 0.00 0.00 23 1008.3
20260831003918 94 323 0.0 0.0 0.00 0.00 0.00 23 1008.3
20260831003414 94 197 0.0 0.9 0.00 0.00 0.00 24 1008.4
20260831002914 94 86 0.0 0.0 0.00 0.00 0.00 24 1008.2
20260831002413 93 54 0.9 0.9 0.00 0.00 0.00 24 1008.5
20260831001908 94 47 0.0 0.0 0.00 0.00 0.00 25 1008.2
20260831001403 95 243 0.9 0.9 0.00 0.00 0.00 23 1008.4
20260831000900 94 245 0.9 0.9 0.00 0.00 0.00 23 1008.5
20260831000356 95 338 0.9 0.9 0.00 0.00 0.00 22 1008.5
20260830235854 95 348 0.9 0.9 0.00 0.00 0.00 22 1008.3
20260830235348 95 240 2.6 3.5 0.00 0.00 0.00 21 1008.3
20260830234844 94 14 0.0 0.0 0.00 0.00 0.00 19 1008.5
20260830234340 94 16 0.0 0.9 0.00 0.00 0.00 20 1008.4
20260830233835 94 261 2.6 3.5 0.00 0.00 0.00 20 1008.6
20260830233331 93 258 1.7 1.7 0.00 0.00 0.00 20 1008.5
20260830232826 94 260 2.6 3.5 0.00 0.00 0.00 21 1008.4
20260830232322 94 297 0.9 0.9 0.00 0.00 0.00 21 1008.7
20260830231819 94 316 0.0 0.9 0.00 0.00 0.00 22 1008.7
20260830231319 94 189 0.9 0.9 0.00 0.00 0.00 21 1008.6
20260830230813 94 327 0.9 1.7 0.00 0.00 0.00 20 1008.8
20260830230308 95 227 0.9 1.7 0.00 0.00 0.00 22 1008.7
20260830225808 94 264 0.0 0.0 0.00 0.00 0.00 20 1009.1
20260830225305 93 22 0.9 0.9 0.00 0.00 0.00 20 1008.9
20260830224802 94 292 0.9 0.9 0.00 0.00 0.00 19 1009.0
20260830224257 93 189 0.9 0.9 0.00 0.00 0.00 21 1009.0
20260830223754 94 94 0.0 0.9 0.00 0.00 0.00 22 1009.2
20260830223250 93 302 1.7 1.7 0.00 0.00 0.00 23 1009.3
20260830222744 91 228 1.7 1.7 0.00 0.00 0.00 22 1009.5
20260830222239 91 234 2.6 3.5 0.00 0.00 0.00 22 1009.4
20260830221734 92 267 1.7 1.7 0.00 0.00 0.00 21 1009.6
20260830221232 93 269 0.9 0.9 0.00 0.00 0.00 21 1009.4
20260830220727 93 249 0.9 0.9 0.00 0.00 0.00 20 1009.4
20260830220225 92 357 0.9 0.9 0.00 0.00 0.00 23 1009.9
20260830215724 92 343 0.0 0.9 0.00 0.00 0.00 22 1009.8
20260830215219 91 298 1.7 3.5 0.00 0.00 0.00 22 1009.8
20260830214714 92 41 0.9 1.7 0.00 0.00 0.00 21 1009.9
20260830214209 91 211 0.0 0.9 0.00 0.00 0.00 20 1010.1
20260830213708 89 248 2.6 3.5 0.00 0.00 0.00 21 1010.1
20260830213203 91 238 1.7 1.7 0.00 0.00 0.00 21 1010.3
20260830212659 90 313 0.9 0.9 0.00 0.00 0.00 21 1010.2
20260830212155 90 226 1.7 1.7 0.00 0.00 0.00 24 1010.2
20260830211654 90 243 2.6 4.3 0.00 0.00 0.00 24 1010.5
20260830211153 90 62 0.9 1.7 0.00 0.00 0.00 23 1010.2
20260830210649 90 237 4.3 6.1 0.00 0.00 0.00 23 1010.4
20260830210148 89 254 1.7 1.7 0.00 0.00 0.00 24 1010.5
20260830205646 88 268 1.7 3.5 0.00 0.00 0.00 24 1010.6
20260830205141 88 262 3.5 6.1 0.00 0.00 0.00 24 1010.5
20260830204641 88 304 0.9 0.9 0.00 0.00 0.00 25 1010.9
20260830204140 88 248 1.7 3.5 0.00 0.00 0.00 26 1010.8
20260830203636 88 326 0.9 1.7 0.00 0.00 0.00 25 1010.9
20260830203137 88 348 0.9 0.9 0.00 0.00 0.00 26 1010.8
20260830202636 86 239 2.6 3.5 0.00 0.00 0.00 27 1010.9
20260830202132 87 5 1.7 1.7 0.00 0.00 0.00 26 1010.6
20260830201631 87 244 1.7 1.7 0.00 0.00 0.00 27 1011.1
20260830201127 86 282 0.9 0.9 0.00 0.00 0.00 27 1011.0
20260830200622 86 276 0.9 0.9 0.00 0.00 0.00 28 1011.1
20260830200121 86 191 0.9 0.9 0.00 0.00 0.00 28 1011.1
20260830195617 86 349 0.9 1.7 0.00 0.00 0.00 27 1011.0
20260830195114 85 347 1.7 1.7 0.00 0.00 0.00 28 1011.0
20260830194609 86 276 1.7 1.7 0.00 0.00 0.00 27 1011.2
20260830194108 85 263 1.7 1.7 0.00 0.00 0.00 29 1011.3
20260830193603 85 349 0.9 0.9 0.00 0.00 0.00 28 1011.3
20260830193058 84 293 0.9 0.9 0.00 0.00 0.00 30 1011.4
20260830192553 84 35 0.9 0.9 0.00 0.00 0.00 29 1011.3
20260830192053 84 343 0.9 0.9 0.00 0.00 0.00 29 1011.4
20260830191548 82 305 1.7 1.7 0.00 0.00 0.00 30 1011.6
20260830191044 83 328 0.9 0.9 0.00 0.00 0.00 30 1011.7
20260830190539 83 241 0.9 1.7 0.00 0.00 0.00 31 1011.9
20260830190034 84 76 0.9 1.7 0.00 0.00 0.00 32 1011.8
20260830185528 83 58 0.9 0.9 0.00 0.00 0.00 30 1012.0
20260830185024 82 41 0.0 0.9 0.00 0.00 0.00 32 1012.0
20260830184522 82 295 0.9 1.7 0.00 0.00 0.00 31 1012.0
20260830184017 81 87 0.9 0.9 0.00 0.00 0.00 32 1012.2
20260830183517 82 255 3.5 4.3 0.00 0.00 0.00 32 1012.1
20260830183013 82 4 1.7 3.5 0.00 0.00 0.00 32 1012.2
20260830182508 81 306 0.9 0.9 0.00 0.00 0.00 33 1012.0
20260830182004 80 73 0.9 0.9 0.00 0.00 0.00 33 1012.0
20260830181500 80 257 1.7 1.7 0.00 0.00 0.00 34 1012.1
20260830180959 79 256 0.9 0.9 0.00 0.00 0.00 34 1012.1
20260830180454 79 243 1.7 1.7 0.00 0.00 0.00 38 1012.1
20260830175952 79 34 0.0 0.0 0.00 0.00 0.00 36 1012.1
20260830175447 78 160 0.0 0.9 0.00 0.00 0.00 37 1012.1
20260830174942 77 293 1.7 1.7 0.00 0.00 0.00 37 1012.1
20260830174438 77 269 2.6 3.5 0.00 0.00 0.00 38 1012.2
20260830173933 77 270 1.7 1.7 0.00 0.00 0.00 38 1012.0
20260830173429 76 234 2.6 3.5 0.00 0.00 0.00 37 1012.1
20260830172924 76 331 3.5 4.3 0.00 0.00 0.00 39 1012.0
20260830172421 77 243 0.9 1.7 0.00 0.00 0.00 39 1012.2
20260830171916 75 354 0.0 0.9 0.00 0.00 0.00 42 1012.3
20260830171411 75 213 1.7 1.7 0.00 0.00 0.00 42 1012.2
20260830170906 74 278 0.0 0.9 0.00 0.00 0.00 42 1012.2
20260830170405 74 250 1.7 1.7 0.00 0.00 0.00 43 1012.1
20260830165903 73 349 0.0 0.0 0.00 0.00 0.00 44 1011.9
20260830165400 73 241 0.9 0.9 0.00 0.00 0.00 42 1012.2
20260830164856 72 241 0.0 0.0 0.00 0.00 0.00 44 1012.1
20260830164352 71 243 0.0 0.9 0.00 0.00 0.00 45 1012.2
20260830163848 71 259 0.0 0.0 0.00 0.00 0.00 45 1012.2
20260830163343 71 251 0.0 0.9 0.00 0.00 0.00 45 1012.2
20260830162838 70 241 0.9 0.9 0.00 0.00 0.00 46 1012.1
20260830162334 70 270 0.9 0.9 0.00 0.00 0.00 47 1012.2
20260830161834 70 240 1.7 1.7 0.00 0.00 0.00 47 1012.0
20260830161333 70 230 0.9 1.7 0.00 0.00 0.00 47 1011.9
20260830160829 70 43 0.0 0.0 0.00 0.00 0.00 49 1012.1
20260830160324 70 69 0.0 0.0 0.00 0.00 0.00 47 1012.1
20260830155820 69 51 0.9 0.9 0.00 0.00 0.00 49 1011.9
20260830155317 68 47 0.9 0.9 0.00 0.00 0.00 51 1011.9
20260830154816 68 44 0.9 0.9 0.00 0.00 0.00 51 1011.6
20260830154312 67 39 0.9 0.9 0.00 0.00 0.00 52 1011.9
20260830153808 67 80 0.0 0.9 0.00 0.00 0.00 53 1012.0
20260830153304 66 38 0.0 0.9 0.00 0.00 0.00 55 1011.8
20260830152802 66 31 0.0 0.0 0.00 0.00 0.00 55 1011.9
20260830152257 65 46 0.0 0.0 0.00 0.00 0.00 55 1011.8
20260830151757 64 262 0.9 0.9 0.00 0.00 0.00 56 1011.9
20260830151256 64 50 0.0 0.0 0.00 0.00 0.00 55 1011.8
20260830150751 64 33 0.9 0.9 0.00 0.00 0.00 55 1011.8
20260830150251 64 41 0.0 0.9 0.00 0.00 0.00 55 1011.8
20260830145745 63 43 0.9 0.9 0.00 0.00 0.00 56 1012.0
20260830145240 63 52 0.9 0.9 0.00 0.00 0.00 55 1011.7
20260830144735 62 36 0.0 0.0 0.00 0.00 0.00 55 1012.1
20260830144231 62 36 0.0 0.9 0.00 0.00 0.00 56 1011.9
20260830143722 62 37 0.0 0.0 0.00 0.00 0.00 56 1011.8
20260830143220 62 29 0.0 0.0 0.00 0.00 0.00 57 1011.6
20260830142715 61 33 0.0 0.0 0.00 0.00 0.00 58 1011.8
20260830142210 61 28 0.0 0.9 0.00 0.00 0.00 58 1011.5
20260830141705 60 41 0.0 0.0 0.00 0.00 0.00 59 1011.6
20260830141200 60 35 0.0 0.9 0.00 0.00 0.00 60 1011.5
20260830140655 60 32 0.0 0.9 0.00 0.00 0.00 61 1011.5
20260830140150 60 33 0.0 0.0 0.00 0.00 0.00 61 1011.5
20260830135645 60 33 0.0 0.0 0.00 0.00 0.00 61 1011.3
20260830135140 60 32 0.0 0.0 0.00 0.00 0.00 61 1011.3
20260830134636 60 33 0.0 0.0 0.00 0.00 0.00 61 1011.2
20260830134131 60 22 0.0 0.0 0.00 0.00 0.00 62 1011.3
20260830133627 61 17 0.0 0.0 0.00 0.00 0.00 61 1011.2
20260830133122 61 228 1.7 1.7 0.00 0.00 0.00 61 1011.2
20260830132618 61 274 0.0 0.0 0.00 0.00 0.00 60 1010.9
20260830132113 61 342 0.0 0.0 0.00 0.00 0.00 59 1011.2
20260830131612 61 39 0.0 0.0 0.00 0.00 0.00 59 1011.0
20260830131107 61 51 0.0 0.0 0.00 0.00 0.00 59 1011.0
20260830130602 61 43 0.9 0.9 0.00 0.00 0.00 59 1010.9
20260830130057 61 29 0.0 0.0 0.00 0.00 0.00 60 1011.0
20260830125551 61 31 0.0 0.0 0.00 0.00 0.00 60 1010.6
20260830125050 61 0 1.7 3.5 0.00 0.00 0.00 61 1010.8
20260830124549 60 29 0.0 0.0 0.00 0.00 0.00 61 1010.8
20260830124045 61 25 0.0 0.0 0.00 0.00 0.00 60 1010.8
20260830123542 61 32 0.0 0.0 0.00 0.00 0.00 59 1010.8
20260830123038 61 27 0.0 0.0 0.00 0.00 0.00 59 1010.8
20260830122534 62 26 0.0 0.0 0.00 0.00 0.00 58 1010.6
20260830122030 62 26 0.0 0.0 0.00 0.00 0.00 57 1010.5
20260830121526 62 27 0.0 0.0 0.00 0.00 0.00 57 1010.4
20260830121025 62 27 0.0 0.0 0.00 0.00 0.00 58 1010.8
20260830120520 62 27 0.0 0.0 0.00 0.00 0.00 59 1010.9
20260830120017 62 27 0.0 0.0 0.00 0.00 0.00 59 1010.8
20260830115513 62 27 0.0 0.0 0.00 0.00 0.00 58 1010.6
20260830115008 63 26 0.0 0.0 0.00 0.00 0.00 57 1010.8
20260830114504 63 24 0.0 0.0 0.00 0.00 0.00 57 1010.8
20260830114004 63 25 0.0 0.0 0.00 0.00 0.00 56 1010.8
20260830113459 63 315 0.0 0.9 0.00 0.00 0.00 55 1010.6
20260830112954 63 37 0.0 0.0 0.00 0.00 0.00 54 1010.8
20260830112450 64 33 0.0 0.0 0.00 0.00 0.00 55 1010.8
20260830111946 64 33 0.0 0.0 0.00 0.00 0.00 55 1010.6
20260830111442 64 15 0.0 0.0 0.00 0.00 0.00 55 1010.8
20260830110937 64 15 0.0 0.0 0.00 0.00 0.00 54 1010.8
20260830110432 64 14 0.0 0.9 0.00 0.00 0.00 55 1010.6
20260830105932 64 350 0.0 0.0 0.00 0.00 0.00 55 1010.8
20260830105428 65 350 0.0 0.0 0.00 0.00 0.00 54 1010.6
20260830104924 65 350 0.0 0.0 0.00 0.00 0.00 52 1010.5
20260830104420 65 348 0.0 0.0 0.00 0.00 0.00 51 1011.0
20260830103920 66 334 0.9 0.9 0.00 0.00 0.00 51 1010.8
20260830103416 66 29 0.0 0.0 0.00 0.00 0.00 51 1010.8
20260830102913 66 26 0.0 0.9 0.00 0.00 0.00 51 1010.9
20260830102409 66 86 0.0 0.0 0.00 0.00 0.00 50 1010.8
20260830101906 66 85 0.0 0.0 0.00 0.00 0.00 49 1010.8
20260830101400 66 32 0.0 0.0 0.00 0.00 0.00 49 1010.5
20260830100900 66 39 0.0 0.0 0.00 0.00 0.00 49 1010.6
20260830100359 66 37 0.0 0.0 0.00 0.00 0.00 48 1010.4
20260830095858 66 43 0.0 0.0 0.00 0.00 0.00 47 1010.5
20260830095354 66 2 0.0 0.0 0.00 0.00 0.00 47 1010.6
20260830094850 67 3 0.0 0.0 0.00 0.00 0.00 46 1010.4
20260830094346 67 11 0.0 0.0 0.00 0.00 0.00 46 1010.6
20260830093842 68 52 0.0 0.0 0.00 0.00 0.00 45 1010.5
20260830093337 68 30 0.9 0.9 0.00 0.00 0.00 45 1010.6
20260830092832 68 42 0.0 0.0 0.00 0.00 0.00 44 1010.5
20260830092328 69 275 0.0 0.0 0.00 0.00 0.00 44 1010.5
20260830091825 69 35 0.0 0.0 0.00 0.00 0.00 43 1010.5
20260830091324 69 355 0.0 0.9 0.00 0.00 0.00 42 1010.4
20260830090823 70 51 0.0 0.0 0.00 0.00 0.00 41 1010.5
20260830090319 70 243 1.7 1.7 0.00 0.00 0.00 41 1010.5
20260830085818 71 132 0.0 0.9 0.00 0.00 0.00 39 1010.5
20260830085314 71 229 0.9 0.9 0.00 0.00 0.00 38 1010.5
20260830084809 71 264 0.9 0.9 0.00 0.00 0.00 38 1010.3
20260830084305 72 263 0.9 1.7 0.00 0.00 0.00 37 1010.5
20260830083759 72 265 1.7 3.5 0.00 0.00 0.00 37 1010.5
20260830083256 72 253 1.7 1.7 0.00 0.00 0.00 37 1010.4
20260830082754 72 240 1.7 1.7 0.00 0.00 0.00 38 1010.8
20260830082250 72 254 0.9 0.9 0.00 0.00 0.00 39 1010.6
20260830081745 72 131 0.9 0.9 0.00 0.00 0.00 39 1010.4
20260830081240 72 245 0.9 0.9 0.00 0.00 0.00 40 1010.6
20260830080739 72 240 1.7 1.7 0.00 0.00 0.00 39 1010.5
20260830080236 72 308 0.0 0.9 0.00 0.00 0.00 39 1010.6
20260830075735 72 263 1.7 1.7 0.00 0.00 0.00 39 1010.3
20260830075231 72 237 1.7 1.7 0.00 0.00 0.00 40 1010.6
20260830074726 72 260 1.7 1.7 0.00 0.00 0.00 40 1010.6
20260830074222 72 263 2.6 4.3 0.00 0.00 0.00 40 1010.4
20260830073717 72 297 2.6 3.5 0.00 0.00 0.00 42 1010.4
20260830073213 72 255 2.6 4.3 0.00 0.00 0.00 43 1010.9
20260830072713 72 258 1.7 1.7 0.00 0.00 0.00 43 1010.6
20260830072208 72 260 0.9 0.9 0.00 0.00 0.00 45 1010.6
20260830071703 72 245 2.6 4.3 0.00 0.00 0.00 44 1010.6
20260830071202 73 251 3.5 4.3 0.00 0.00 0.00 44 1010.8
20260830070656 73 227 0.9 1.7 0.00 0.00 0.00 45 1010.6
20260830070151 73 266 2.6 3.5 0.00 0.00 0.00 45 1010.8
20260830065650 73 283 1.7 3.5 0.00 0.00 0.00 45 1010.8
20260830065149 73 252 2.6 4.3 0.00 0.00 0.00 44 1010.5
20260830064643 73 238 2.6 3.5 0.00 0.00 0.00 44 1010.6
20260830064138 73 250 2.6 3.5 0.00 0.00 0.00 45 1010.4
20260830063638 74 253 0.9 0.9 0.00 0.00 0.00 45 1010.5
20260830063137 74 274 0.9 0.9 0.00 0.00 0.00 45 1010.4
20260830062632 74 239 0.9 0.9 0.00 0.00 0.00 44 1010.3
20260830062127 74 279 1.7 3.5 0.00 0.00 0.00 44 1010.4
20260830061621 74 266 0.9 1.7 0.00 0.00 0.00 45 1010.4
20260830061117 74 271 2.6 3.5 0.00 0.00 0.00 44 1010.4
20260830060614 74 241 1.7 1.7 0.00 0.00 0.00 43 1010.5
20260830060111 75 267 1.7 3.5 0.00 0.00 0.00 43 1010.4
20260830055605 75 257 2.6 4.3 0.00 0.00 0.00 42 1010.3
20260830055101 76 272 2.6 4.3 0.00 0.00 0.00 41 1010.2
20260830054556 76 201 1.7 1.7 0.00 0.00 0.00 40 1010.4
20260830054052 76 226 1.7 1.7 0.00 0.00 0.00 39 1010.3
20260830053547 76 276 0.9 0.9 0.00 0.00 0.00 38 1010.1
20260830053047 76 265 3.5 5.2 0.00 0.00 0.00 37 1010.3
20260830052543 76 245 2.6 3.5 0.00 0.00 0.00 38 1010.4